Helicity
193 171 160 148 138 148 185 235 271 296 294 303 324 357 372 392 381 393 403 426 437 445 451 428 326 361 273 242 259 194 181 160 225 174 144 156 152 133 125 128 113 127 135
227 213 196 155 119 159 196 235 239 246 246 279 316 352 386 404 408 418 454 457 419 395 403 339 337 304 239 170 141 95 121 144 159 158 157 146 128 119 117 121 123 138 151
198 161 133 116 133 153 187 180 189 204 222 254 317 359 384 424 466 477 485 474 404 398 306 318 283 218 153 102 81 115 114 129 150 164 147 126 115 114 134 135 140 144 151
84 62 42 86 141 145 163 169 212 258 316 318 365 406 454 510 547 586 536 441 401 279 263 235 203 119 73 89 104 107 134 131 131 141 149 153 139 118 144 133 131 148 168
-17 -9 56 148 172 209 235 261 277 284 306 348 431 471 493 467 439 412 417 253 256 255 206 126 76 27 56 104 133 123 113 133 140 152 150 164 159 143 136 153 172 160 148
65 121 156 195 226 245 257 257 257 346 337 383 410 441 431 415 378 239 265 265 196 113 88 70 91 117 134 106 111 121 116 136 151 157 165 157 150 156 170 154 162 137 121
78 105 127 144 198 197 224 255 230 239 250 312 311 308 323 225 144 182 135 118 59 43 65 92 111 97 109 105 106 128 144 120 124 150 164 163 170 144 151 131 113 122 131
112 52 82 108 133 124 171 149 241 245 262 232 218 225 185 152 139 118 66 38 73 90 91 75 80 99 102 103 119 132 126 114 131 154 157 142 131 105 101 105 106 137 172
44 18 67 96 77 138 199 153 147 191 203 155 180 136 91 53 66 45 32 65 66 83 89 102 90 99 102 110 126 117 112 128 114 70 60 37 30 22 46 109 131 145 155
10 -12 6 90 145 119 110 120 131 119 143 122 75 29 29 33 13 48 77 68 78 99 107 107 101 100 88 95 147 150 138 113 93 72 68 52 58 69 46 109 149 172 165
31 39 54 116 111 46 52 21 16 15 23 38 31 31 57 73 97 99 83 70 78 99 100 110 122 133 140 143 124 130 88 60 71 43 47 68 75 88 103 119 133 187 168
23 23 17 -4 -14 -16 1 3 6 3 8 14 36 55 62 70 81 95 110 121 119 120 141 149 150 150 135 114 96 52 38 51 40 52 65 83 96 106 111 120 129 151 199
-28 -20 -22 -18 -18 -19 -8 -8 4 11 21 22 31 37 47 60 85 123 140 154 158 174 167 186 156 120 93 79 54 49 42 47 53 62 71 91 104 121 124 135 140 152 185
-9 -12 -17 -7 -4 -0 8 11 18 20 27 34 47 57 62 79 104 126 147 159 186 194 168 136 97 75 52 40 43 38 50 57 56 65 78 94 104 127 136 142 153 141 146
-0 -4 -4 3 16 28 25 16 22 14 27 42 54 74 94 108 127 167 183 177 165 123 128 78 48 37 37 36 48 62 67 65 71 82 93 99 121 124 142 134 165 166 192
10 5 9 17 17 18 22 31 53 65 80 84 84 96 115 133 137 165 165 137 105 65 54 17 17 13 16 42 56 69 80 69 91 102 113 135 146 143 143 157 159 175 188
26 23 25 28 26 28 29 36 43 46 93 108 121 135 146 142 147 152 128 91 36 28 3 3 2 17 41 66 72 80 92 105 119 129 139 156 165 173 139 183 177 182 196
32 47 34 33 35 38 40 45 55 68 75 75 101 126 144 146 154 116 89 58 14 3 -1 -7 7 23 48 66 74 83 95 101 110 130 160 154 161 173 171 183 188 183 190
51 44 42 42 41 49 54 65 73 77 77 76 90 121 133 149 131 88 65 36 10 -3 -3 8 26 32 49 66 78 93 110 121 110 117 139 155 154 163 190 199 204 131 106
52 65 59 55 57 60 63 68 70 74 76 76 83 99 114 146 122 81 48 22 9 14 12 25 32 37 47 73 89 102 115 129 140 148 157 162 163 178 207 214 214 192 174
68 67 76 70 65 65 67 70 71 74 73 73 78 89 89 133 101 71 41 20 25 25 29 38 48 51 54 72 90 101 115 132 155 166 173 178 181 190 203 224 231 220 199
78 78 73 72 69 72 72 72 71 72 69 74 82 91 77 100 81 61 43 34 31 36 41 49 64 74 79 83 88 95 105 125 146 173 177 196 215 210 194 194 179 185 168
89 88 82 76 72 77 80 74 73 72 72 80 88 95 98 88 71 66 53 37 30 37 47 56 67 85 92 99 114 117 130 142 146 162 185 222 234 226 170 166 165 161 171
92 86 84 80 80 80 77 74 76 72 73 83 96 102 100 91 72 61 52 35 30 35 48 62 76 87 87 90 102 109 131 146 135 159 189 242 198 132 148 162 167 134 156
92 90 86 81 79 83 75 79 76 76 82 95 108 114 103 88 70 58 51 39 34 33 35 57 85 86 84 91 101 104 103 56 83 93 127 151 143 122 147 160 135 147 117
95 90 88 89 88 85 80 83 82 85 91 109 118 117 110 91 65 53 43 31 30 28 32 68 82 88 84 93 107 80 36 28 56 55 62 117 116 121 140 126 117 128 103
Wind_Speed
69 69 69 69 67 66 66 64 59 53 49 46 43 40 40 38 37 36 36 35 34 33 34 37 37 42 44 46 51 54 55 56 70 66 62 68 73 74 78 79 80 83 84
61 63 66 67 67 65 61 56 49 48 44 39 35 31 30 28 28 29 30 30 31 33 35 36 41 45 46 53 52 53 57 61 65 77 71 72 73 76 79 83 84 83 87
54 56 57 57 55 52 47 42 42 39 36 32 28 26 24 23 21 22 25 28 29 31 35 39 43 46 49 53 56 58 61 62 64 69 78 73 76 76 82 83 86 86 84
46 46 50 47 39 37 36 36 36 31 25 23 20 20 18 17 17 19 22 23 26 33 38 42 46 49 53 58 57 59 60 65 69 74 79 81 80 81 82 92 95 89 90
39 43 40 32 29 27 26 22 18 17 15 13 11 12 13 17 20 17 20 27 32 39 42 47 48 49 49 53 57 59 64 68 73 79 82 84 88 88 92 92 95 93 88
39 35 31 29 26 24 20 14 9 7 3 4 5 8 11 14 13 17 21 33 34 36 41 45 47 50 56 57 60 63 64 68 76 79 84 88 89 90 88 91 92 96 99
39 34 29 25 24 22 18 13 9 8 6 8 6 9 11 14 16 20 28 32 37 39 44 46 50 52 57 63 66 67 68 69 71 76 85 87 90 88 87 88 85 84 87
42 35 29 28 24 20 14 19 15 12 12 10 10 13 14 14 22 26 28 32 36 40 46 51 58 62 65 67 68 69 70 70 72 74 76 77 74 73 73 76 80 82 79
40 42 32 32 28 28 29 21 17 16 19 16 14 14 19 21 25 28 31 37 42 46 49 55 61 63 66 68 71 74 76 75 72 71 68 70 71 72 71 73 74 77 85
44 44 44 29 28 27 25 21 32 16 20 20 24 22 24 28 30 35 38 43 49 49 53 58 61 65 67 69 72 76 81 80 75 72 69 68 65 63 63 60 63 69 72
50 50 47 41 39 39 35 30 32 32 28 31 32 30 31 34 39 41 45 49 53 56 60 63 65 68 70 73 72 73 74 69 67 68 66 64 62 60 58 58 55 52 52
52 55 55 50 51 44 42 41 36 38 37 35 34 36 39 42 43 45 49 52 56 59 64 65 66 71 72 70 67 65 65 63 60 59 59 60 58 60 59 57 48 40 35
51 49 48 45 46 47 45 42 39 38 37 37 38 40 43 45 46 49 53 57 61 62 63 64 69 68 66 63 61 59 53 52 54 56 56 57 58 56 53 51 47 42 39
49 49 49 47 45 42 40 39 38 38 38 39 40 42 45 47 49 52 55 60 60 63 60 64 64 60 57 54 51 49 48 46 47 51 55 55 55 59 57 51 47 46 45
46 45 43 42 41 41 41 40 40 40 39 40 41 44 48 53 53 57 60 62 61 62 59 60 59 55 53 50 48 37 41 46 53 53 50 53 52 53 50 42 42 43 42
40 40 39 39 39 39 39 41 43 44 42 44 44 48 49 50 53 56 60 60 59 58 55 54 50 48 47 38 33 36 40 45 49 48 46 45 44 38 33 43 44 45 43
35 35 35 35 35 35 36 37 39 43 46 49 51 52 53 54 54 58 58 56 53 50 50 46 44 42 40 29 30 34 34 34 37 42 43 40 41 40 43 42 43 46 45
32 32 33 33 34 35 36 38 40 43 47 49 52 55 56 54 55 56 54 50 52 46 43 42 41 42 38 32 32 33 33 33 33 36 41 41 42 44 42 42 45 43 38
28 29 31 32 33 34 36 40 43 45 48 50 53 55 57 53 54 53 51 50 44 40 41 41 39 43 40 36 33 31 32 33 31 31 36 41 40 42 41 41 39 35 31
26 27 28 30 32 35 39 41 43 46 49 52 55 57 57 53 56 54 49 44 38 36 40 39 41 47 46 39 35 35 35 35 34 35 35 37 38 41 39 37 36 32 31
23 26 27 30 33 36 39 41 44 47 50 52 55 56 55 53 52 50 44 38 34 36 40 40 43 48 52 49 45 44 41 36 35 34 35 36 37 38 37 37 36 35 34
22 24 27 30 32 36 38 41 44 47 50 53 56 55 54 52 49 46 40 35 31 36 38 39 41 43 45 46 47 46 44 39 35 36 36 37 37 36 35 41 40 36 34
21 24 27 30 33 36 38 42 45 48 50 52 53 53 52 51 46 42 38 34 31 41 43 42 43 41 39 38 36 34 35 34 34 34 35 36 37 36 39 40 36 34 35
20 22 27 30 33 36 39 43 46 48 50 51 52 51 50 47 44 41 38 33 32 46 49 47 45 41 39 36 34 31 32 30 31 31 29 34 38 36 36 36 37 33 33
19 23 27 30 33 37 41 44 46 47 48 49 50 50 50 46 44 40 38 34 33 52 56 53 47 45 41 31 26 29 30 30 29 29 31 33 38 35 35 36 34 35 36
19 23 27 31 35 38 41 43 45 46 47 48 48 48 50 46 42 39 37 34 37 57 61 56 54 36 19 26 28 36 41 40 36 25 26 32 35 35 36 33 34 40 34
Wind_Direction
300 299 298 296 294 290 286 283 278 275 272 269 268 266 265 265 268 272 277 281 282 288 296 300 305 310 312 311 310 312 313 314 311 317 318 318 319 320 320 320 321 320 320
310 307 304 300 295 291 287 284 279 277 272 266 265 265 266 266 272 273 279 285 286 291 298 302 305 311 311 314 314 315 314 315 315 314 318 320 320 321 320 320 320 321 320
322 318 315 312 305 296 291 285 280 276 270 262 258 260 265 271 276 283 285 290 294 301 303 304 311 310 312 312 313 315 316 317 318 318 318 321 321 323 322 321 321 321 321
336 330 323 320 317 306 297 291 281 272 260 253 256 262 273 282 292 297 299 299 302 308 311 314 313 311 313 314 317 319 319 319 319 319 319 320 322 323 323 321 321 323 322
354 337 334 345 335 323 315 315 300 282 264 250 244 264 282 299 301 307 312 309 311 312 315 317 316 316 322 322 322 323 320 321 320 319 320 321 321 322 322 323 321 323 323
10 3 352 357 350 345 344 332 337 341 313 279 269 282 305 318 327 335 322 315 318 321 324 323 325 323 324 326 326 325 326 324 322 321 321 321 322 323 324 324 324 323 322
32 21 5 10 17 3 358 346 2 358 27 34 337 311 320 336 336 338 328 326 320 327 322 328 328 330 331 327 325 326 326 326 325 324 322 322 322 324 325 325 325 324 323
35 46 23 29 18 16 340 38 19 23 27 11 348 337 344 342 339 338 340 334 332 337 332 329 326 329 329 329 328 327 327 328 327 326 325 325 326 328 327 327 327 326 326
73 71 36 45 46 45 50 29 21 25 37 26 9 342 341 337 344 345 345 339 333 336 338 336 332 332 332 331 329 328 328 328 330 330 330 329 330 331 332 332 331 331 330
74 94 83 35 39 41 39 30 50 16 25 27 26 7 4 5 348 350 348 343 338 345 342 339 337 335 334 333 332 330 328 330 331 333 334 335 338 339 339 340 338 336 337
83 80 71 59 60 61 54 42 43 44 30 35 40 21 10 2 359 353 347 345 343 343 340 339 339 338 337 335 334 332 331 334 336 336 338 341 343 346 347 347 346 345 343
79 78 79 74 80 67 64 58 46 51 48 41 29 16 8 2 358 356 354 351 348 344 341 341 342 339 338 338 338 338 337 340 343 345 347 347 350 350 351 352 352 350 344
72 69 67 62 67 73 69 62 53 48 41 30 18 9 5 2 2 360 356 351 348 347 347 346 343 343 343 344 344 347 353 356 355 353 354 353 353 353 354 355 356 354 349
76 77 78 72 66 58 51 48 43 37 32 25 19 13 8 5 2 359 356 353 353 351 351 350 349 351 354 356 2 6 8 10 7 0 356 356 357 356 356 359 357 357 356
75 73 68 65 60 54 47 43 38 34 31 24 18 12 4 360 0 358 356 356 356 355 355 356 358 3 6 12 15 31 22 14 6 3 5 3 3 2 1 3 2 360 358
70 69 65 59 54 50 45 37 30 25 25 18 15 9 8 6 3 2 360 359 1 2 4 7 13 19 21 34 37 29 25 17 13 11 10 9 7 5 358 4 5 3 359
67 63 59 55 49 41 34 29 24 19 15 9 7 8 6 4 4 2 3 6 9 14 16 23 27 29 31 43 38 32 26 23 19 16 14 12 9 7 5 4 4 3 360
60 58 52 47 43 38 33 26 20 14 9 7 7 5 4 6 6 7 9 14 13 22 28 26 26 24 30 35 33 30 26 23 22 19 16 13 10 8 5 3 3 1 356
55 50 46 43 38 33 27 19 15 13 10 8 6 5 5 8 9 11 14 15 21 27 23 22 24 17 22 26 26 25 23 21 21 17 14 12 10 8 2 1 359 350 338
49 46 42 35 30 24 18 15 14 11 8 6 4 4 5 7 6 9 13 18 24 26 17 19 16 5 9 18 20 19 18 18 19 18 13 10 7 5 359 357 355 342 340
42 37 33 26 23 18 15 13 11 8 6 5 4 4 6 7 7 9 14 20 24 18 11 14 10 3 359 3 8 10 12 13 15 13 9 7 4 359 359 358 354 352 353
36 31 23 19 20 15 13 11 8 6 5 3 3 5 7 7 9 10 16 19 21 9 8 10 9 8 5 4 4 4 6 9 10 10 8 5 2 357 356 2 359 357 353
28 22 17 15 15 12 10 7 5 3 2 2 3 5 7 7 10 12 13 14 14 356 358 4 5 7 8 8 9 8 6 5 5 5 2 359 356 356 1 357 353 347 351
23 20 12 10 9 8 5 3 2 1 1 1 2 4 5 6 8 8 8 10 7 344 347 356 2 4 5 7 7 6 2 360 1 358 348 351 356 354 355 352 353 343 340
18 13 8 6 5 2 1 -0 359 360 0 360 0 2 2 3 3 5 5 5 1 334 334 348 358 1 3 4 359 358 358 356 353 350 353 349 356 350 351 352 346 345 348
10 7 3 2 360 359 358 358 358 358 358 358 359 359 358 360 0 1 2 2 355 325 325 343 351 5 357 3 1 1 360 358 357 345 309 349 354 353 353 343 344 357 346